Location: ???????
(55.4362°N, 38.1183°E)
Time: 16:09:00
(UTC+00:00)

NOSS 2-3 (D) - Pass Details

Date: 17 June 2021
Orbit: 559 x 1652 km, 63.4° (Epoch: 23 July)

Event Time Altitude Azimuth Distance (km) Brightness Sun altitude
Exits shadow 23:15:21 - 224° (SW) 2,029 5.6 -7.9°
Reaches altitude 10° 23:15:35 10° 224° (SW) 1,937 5.5 -7.9°
Maximum altitude 23:19:51 80° 139° (SE) 687 3.8 -7.7°
Drops below altitude 10° 23:25:09 10° 52° (NE) 2,383 7.8 -7.3°
Sets 23:27:55 0° 52° (NE) 3,485 8.8 -7.2°
